TimeCDT,TemperatureF,Dew PointF,Humidity,Sea Level PressureIn,VisibilityMPH,Wind Direction,Wind SpeedMPH,Gust SpeedMPH,PrecipitationIn,Events,Conditions,WindDirDegrees,DateUTC
12:41 AM,73.4,71.6,94,30.06,1.2,Calm,Calm,-,N/A,,Clear,0,2013-08-23 05:41:00
12:48 AM,71.6,69.8,94,30.06,0.2,Calm,Calm,-,N/A,Fog,Fog,0,2013-08-23 05:48:00
12:49 AM,71.1,70.0,96,30.05,0.2,Calm,Calm,-,N/A,Fog,Fog,0,2013-08-23 05:49:00
1:00 AM,73.4,71.6,94,30.06,0.5,Calm,Calm,-,N/A,Fog,Fog,0,2013-08-23 06:00:00
1:06 AM,73.4,71.6,94,30.06,2.0,Calm,Calm,-,N/A,,Clear,0,2013-08-23 06:06:00
1:13 AM,71.6,69.8,94,30.06,0.8,Calm,Calm,-,N/A,,Clear,0,2013-08-23 06:13:00
1:28 AM,71.6,71.6,100,30.05,2.0,Calm,Calm,-,N/A,,Clear,0,2013-08-23 06:28:00
1:33 AM,69.8,69.8,100,30.05,0.8,Calm,Calm,-,N/A,,Clear,0,2013-08-23 06:33:00
1:42 AM,69.8,69.8,100,30.05,2.0,Calm,Calm,-,N/A,,Clear,0,2013-08-23 06:42:00
1:49 AM,69.8,69.8,100,30.05,3.0,Calm,Calm,-,N/A,,Clear,0,2013-08-23 06:49:00
1:52 AM,69.1,69.1,100,30.04,1.2,Calm,Calm,-,N/A,,Clear,0,2013-08-23 06:52:00
2:02 AM,69.8,69.8,100,30.05,0.2,Calm,Calm,-,N/A,Fog,Fog,0,2013-08-23 07:02:00
2:16 AM,69.8,69.8,100,30.05,0.2,Calm,Calm,-,N/A,Fog,Fog,0,2013-08-23 07:16:00
2:52 AM,70.0,69.1,97,30.03,0.2,Calm,Calm,-,N/A,Fog,Fog,0,2013-08-23 07:52:00
3:47 AM,69.8,68.0,94,30.05,0.5,Calm,Calm,-,N/A,Fog,Fog,0,2013-08-23 08:47:00
3:52 AM,69.1,68.0,96,30.04,0.5,Calm,Calm,-,N/A,Fog,Fog,0,2013-08-23 08:52:00
4:21 AM,69.8,68.0,94,30.05,0.5,Calm,Calm,-,N/A,Fog,Fog,0,2013-08-23 09:21:00
4:32 AM,68.0,68.0,100,30.05,2.0,Calm,Calm,-,N/A,,Clear,0,2013-08-23 09:32:00
4:39 AM,69.8,68.0,94,30.05,0.8,Calm,Calm,-,N/A,,Mist,0,2013-08-23 09:39:00
4:44 AM,69.8,69.8,100,30.05,0.2,Calm,Calm,-,N/A,Fog,Fog,0,2013-08-23 09:44:00
4:52 AM,68.0,68.0,100,30.04,0.2,Calm,Calm,-,N/A,Fog,Fog,0,2013-08-23 09:52:00
5:09 AM,68.0,66.2,94,30.05,0.5,Calm,Calm,-,N/A,Fog,Fog,0,2013-08-23 10:09:00
5:18 AM,66.2,66.2,100,30.06,1.2,Calm,Calm,-,N/A,,Clear,0,2013-08-23 10:18:00
5:26 AM,68.0,66.2,94,30.06,2.5,Calm,Calm,-,N/A,,Clear,0,2013-08-23 10:26:00
5:34 AM,68.0,68.0,100,30.06,5.0,Calm,Calm,-,N/A,,Clear,0,2013-08-23 10:34:00
5:41 AM,66.2,66.2,100,30.07,1.8,North,3.5,-,N/A,,Scattered Clouds,10,2013-08-23 10:41:00
5:52 AM,69.1,68.0,96,30.06,3.0,NW,3.5,-,N/A,,Partly Cloudy,320,2013-08-23 10:52:00
6:05 AM,69.8,68.0,94,30.07,3.0,North,3.5,-,N/A,,Mostly Cloudy,350,2013-08-23 11:05:00
6:07 AM,69.8,68.0,94,30.08,2.0,North,4.6,-,N/A,,Mostly Cloudy,350,2013-08-23 11:07:00
6:11 AM,69.8,68.0,94,30.08,0.8,NNW,3.5,-,N/A,,Mist,340,2013-08-23 11:11:00
6:23 AM,69.8,68.0,94,30.08,0.8,NNW,6.9,-,N/A,,Mist,340,2013-08-23 11:23:00
6:30 AM,69.8,69.8,100,30.08,2.0,North,3.5,-,N/A,,Mostly Cloudy,360,2013-08-23 11:30:00
6:33 AM,69.8,68.0,94,30.08,3.0,Calm,Calm,-,N/A,,Scattered Clouds,0,2013-08-23 11:33:00
6:52 AM,70.0,69.1,97,30.08,4.0,North,3.5,-,N/A,,Mostly Cloudy,350,2013-08-23 11:52:00
7:52 AM,72.0,71.1,97,30.09,4.0,ESE,3.5,-,N/A,,Mostly Cloudy,110,2013-08-23 12:52:00
7:59 AM,71.6,71.6,100,30.10,4.0,ESE,3.5,-,N/A,,Mostly Cloudy,120,2013-08-23 12:59:00
8:21 AM,73.4,71.6,94,30.10,6.0,ESE,3.5,-,N/A,,Mostly Cloudy,110,2013-08-23 13:21:00
8:52 AM,75.9,71.1,85,30.08,8.0,Calm,Calm,-,N/A,,Mostly Cloudy,0,2013-08-23 13:52:00
9:52 AM,80.1,71.1,74,30.10,8.0,ENE,4.6,-,N/A,,Scattered Clouds,70,2013-08-23 14:52:00
10:52 AM,81.0,71.1,72,30.10,10.0,East,3.5,-,N/A,,Partly Cloudy,100,2013-08-23 15:52:00
11:52 AM,84.0,72.0,67,30.09,10.0,NNE,3.5,-,N/A,,Partly Cloudy,30,2013-08-23 16:52:00
12:52 PM,86.0,72.0,63,30.08,10.0,Variable,3.5,-,N/A,,Partly Cloudy,0,2013-08-23 17:52:00
1:52 PM,86.0,72.0,63,30.06,10.0,NE,6.9,-,N/A,,Scattered Clouds,50,2013-08-23 18:52:00
2:52 PM,88.0,71.1,57,30.05,10.0,NE,3.5,-,N/A,,Scattered Clouds,50,2013-08-23 19:52:00
3:52 PM,89.1,70.0,53,30.03,10.0,North,6.9,-,N/A,,Clear,10,2013-08-23 20:52:00
4:52 PM,88.0,71.1,57,30.03,10.0,NE,3.5,-,N/A,,Clear,50,2013-08-23 21:52:00
5:52 PM,86.0,71.1,61,30.04,10.0,NNE,5.8,-,N/A,,Clear,20,2013-08-23 22:52:00
6:52 PM,84.0,70.0,63,30.04,10.0,Calm,Calm,-,N/A,,Clear,0,2013-08-23 23:52:00
7:52 PM,75.9,71.1,85,30.05,10.0,Calm,Calm,-,N/A,,Clear,0,2013-08-24 00:52:00
8:52 PM,72.0,70.0,93,30.07,10.0,Calm,Calm,-,N/A,,Clear,0,2013-08-24 01:52:00
9:52 PM,72.0,69.1,91,30.08,9.0,Calm,Calm,-,N/A,,Clear,0,2013-08-24 02:52:00
10:52 PM,70.0,68.0,93,30.09,9.0,ENE,4.6,-,N/A,,Clear,60,2013-08-24 03:52:00
11:52 PM,70.0,68.0,93,30.09,7.0,ENE,4.6,-,N/A,,Clear,70,2013-08-24 04:52:00